Regional Weather Roundup
Issued by NWS State College, PA

Current Version | Previous Version | Text Only | Print | Product List | Glossary On
Versions: 1 2 3 4 5 6 7 8 9 10 11 12 13 14 15 16 17 18 19 20 21 22 23 24 25 26 27 28 29 30 31 32 33 34 35 36 37 38 39 40 41 42 43 44 45 46 47 48 49 50
000
ASUS41 KCTP 250010
RWRCTP

REGIONAL WEATHER ROUNDUP
NATIONAL WEATHER SERVICE STATE COLLEGE PA
800 PM EDT FRI APR 24 2015

Note: "fair" indicates few or no clouds below 12,000 feet with no
significant weather and/or obstructions to visibility.

* = STATION THAT DOES NOT REPORT PRECIPITATION /E.G. RAIN...SNOW...ETC/
    THUNDER OR FOG.

PAZ002>004-007>009-013>016-020>023-029>032-250100-
WESTERN PENNSYLVANIA

CITY           SKY/WX    TMP DP  RH WIND       PRES   REMARKS
ERIE           CLEAR     40  16  37 W6        30.04S
MEADVILLE      CLEAR     40  18  41 NW7       30.01S
FRANKLIN*      CLEAR     39  16  38 NW6       30.02R
NEW CASTLE     FAIR      46  17  31 CALM      30.01F
BEAVER COUNTY  CLEAR     48  18  29 N8        29.99
BUTLER*        CLEAR     46  16  29 N6        30.01R
PITTSBURGH INT PTCLDY    51  18  27 N14       29.97S
PITTSBURGH     CLEAR     51  12  21 NW10      29.96S
INDIANA*       CLEAR     46  14  27 NW13      30.00R
LATROBE        CLEAR     50  19  29 NW6       29.98S
WASHINGTON CO* PTCLDY    50  19  29 NW8       29.99S
$$

PAZ004>006-010>012-017>019-024>028-033>037-041-042-045-046-049>053-250100-
CENTRAL PENNSYLVANIA

CITY           SKY/WX    TMP DP  RH WIND       PRES   REMARKS
BRADFORD       CLEAR     35  18  49 NW13      29.95R
DUBOIS         CLEAR     42   9  25 W13G22    29.96R
CLEARFIELD     CLEAR     43   9  24 NW13      29.95R
JOHNSTOWN      CLEAR     44  17  33 NW14      29.92R
ALTOONA        CLEAR     48  16  27 NW16G29   29.92R
STATE COLLEGE  CLEAR     46  10  23 NW12      29.93R
WILLIAMSPORT   CLEAR     47  11  23 NW12G21   29.92R
SELINSGROVE    CLEAR     49  12  22 W8        29.92R
FT INDIANTOWN  CLEAR     51  11  19 W7        29.89R
CAPITAL CITY   CLEAR     53  12  19 NW10G22   29.91R
HARRISBURG     PTCLDY    53  13  20 NW17G24   29.90R
YORK           CLEAR     50  21  32 NW8       29.90R
$$

PAZ038>040-043-044-047-048-054-055-060>062-067>071-250100-
EASTERN PENNSYLVANIA

CITY           SKY/WX    TMP DP  RH WIND       PRES   REMARKS
SCRANTON       CLEAR     40  20  44 N10       29.93R
MOUNT POCONO   CLEAR     35  19  52 NW10G22   29.86R
ALLENTOWN      CLEAR     46  20  35 N14G20    29.89R
QUAKERTOWN*    CLEAR     48  10  21 N8G16     29.88R
READING        CLEAR     51  12  21 W14       29.88R
LANCASTER      CLEAR     49  19  30 NW9       29.89R
COATESVILLE    CLEAR     50  18  27 NW12      29.89R
POTTSTOWN      CLEAR     49  14  24 NW7       29.89R
BLUE BELL      CLEAR     52  18  25 NW5       29.87R
DOYLESTOWN     CLEAR     49   8  19 NW10      29.87R
WILLOW GROVE   NOT AVBL
NORTH PHILA    CLEAR     53  10  18 NW9       29.89R
PHILADELPHIA   PTCLDY    55  15  20 W14       29.89R
$$



USA.gov is the U.S. government's official web portal to all federal, state and local government web resources and services.